Korgöz

Azerbaijan     40˚18′14″N   49˚37′49″E
temp.,
°C
wind,
m/s
gust,
m/s
humid.,
%
clouds,
%
prec.,
mm/h
press.,
hPa
HPBL,
m
3 december, thu
thu301:00+10˚nnw688597 0.0 1028293
04:00+10˚nne798957 0.0 1028395
07:00+10˚ne678441 0.0 1029448
10:00+10˚ne677845 0.0 1030546
13:00+11˚ne557275 0.0 1029724
16:00+10˚ne667387 0.0 1029696
19:00+9˚ne667656 0.0 1030503
22:00+9˚ne557576 0.0 1030576
4 december, fri
fri401:00+9˚ene457494 0.0 1030534
04:00+9˚ne447289 0.0 1029434
07:00+9˚ne447191 0.0 1029472
10:00+9˚ene447096 0.1 1030542
13:00+9˚ene4476100 0.3 1029532
16:00+9˚ene4581100 0.9 1028501
19:00+9˚ne5684100 1.1 1028456
22:00+10˚e3686100 2.7 1027490
5 december, sat
sat501:00+11˚ese6784100 0.6 1027518
04:00+10˚e7878100 0.9 1026507
07:00+9˚ene6778100 0.0 1027486
10:00+10˚ene6675100 0.1 1027644
13:00+10˚ene7773100 0.1 1026650
16:00+9˚ene776997 0.1 1026665
19:00+9˚ne676690 0.0 1027617
22:00+9˚ne676394 0.0 1027622
6 december, sun
sun601:00+8˚ne676587 0.0 1027654
04:00+7˚ne786385 0.0 1027654
07:00+7˚ne796294 0.0 1027655
10:00+8˚ne896395 0.0 1028931
13:00+8˚ne786252 0.0 10281068
16:00+7˚ne886226 0.0 10271062
19:00+7˚ne786530 0.0 1029828
22:00+6˚ne786560 0.0 1030768
7 december, mon
mon701:00+6˚nne686381 0.0 1030696
04:00+6˚ne676378 0.0 1030761
07:00+6˚nne666531 0.0 1031776
10:00+6˚nne566241 0.0 10321139
13:00+6˚ne566086 0.0 10311145
16:00+6˚ne666273 0.0 10311122
19:00+5˚ne556469 0.0 1032755
22:00+5˚ne566671 0.0 1033750